#timestamp,LO_Frequency,Hit 
1502449215.1,286046997.0,N
1502449235.9,286047002.0,N
1502449255.7,286047007.3,N
1502449275.5,286047004.5,N
1502449295.4,286047007.0,N
1502449315.2,286047007.4,N
1502449335.0,286047003.8,N
1502449335.9,286047003.8,N
1502449355.8,286047006.0,N
1502449375.6,286047001.3,N
1502449395.4,286047005.1,N
1502449415.3,286047008.3,P
1502449435.1,286047003.3,N
1502449436.0,286047003.3,N
1502449455.8,286047002.2,N
1502449475.7,286047001.3,N
1502449495.5,286046999.8,N
1502449515.3,286047005.8,N
1502449535.2,286047003.1,N
1502449555.9,286047007.0,N
1502449575.7,286047005.8,N
1502449595.6,286047005.0,N
1502449615.4,286047003.3,N
1502449635.2,286047000.5,N
1502449655.0,286047002.3,N
1502449655.9,286047002.3,N
1502449675.8,286046998.4,N
1502449695.6,286047000.4,N
1502449715.4,286047001.9,N
1502449735.3,286047000.8,N
1502449755.1,286047002.5,N
1502449775.8,286047001.2,N
1502449795.7,286047004.0,N
1502449815.5,286047003.7,N
1502449835.3,286047001.5,N
1502449855.2,286047004.7,N
1502449875.9,286047005.8,N
1502449895.7,286047005.5,N
1502449915.6,286047005.6,N
1502449935.4,286047001.4,N
1502449955.2,286047004.2,N
1502449975.0,286047002.5,N
1502449975.9,286047002.5,N
1502449995.8,286047003.2,N
1502450015.6,286047002.3,N
1502450035.4,286047002.4,N
1502450055.3,286047002.0,N
1502450075.1,286047002.5,N
1502450095.8,286047000.5,N
1502450115.7,286047000.2,N
1502450135.5,286046999.3,N
1502450155.3,286047003.9,N
1502450175.2,286047000.4,N
1502450195.9,286047002.3,N
1502450215.7,286047003.0,N
1502450235.6,286047002.0,N
1502450255.4,286047003.7,N
1502450275.2,286047003.2,N
1502450295.0,286047003.4,N
1502450295.9,286047003.4,N
1502450315.8,286047005.0,P
1502450335.6,286047002.1,N
1502450355.5,286047001.1,N
1502450375.3,286047003.0,N
1502450395.1,286047003.7,N
1502450415.8,286047000.4,N
1502450435.7,286047004.2,N
1502450455.5,286047003.6,N
1502450475.3,286047000.3,N
1502450495.2,286047004.4,N
1502450515.9,286047000.7,N
1502450535.7,286046998.2,N
1502450555.6,286047001.0,N
1502450575.4,286046998.1,N
1502450595.2,286046999.7,N
1502450615.1,286047003.4,N
1502450616.0,286047003.4,N
1502450635.8,286047005.8,N
1502450655.6,286047006.2,N
1502450675.5,286047008.6,P
1502450695.3,286047007.1,N
1502450715.1,286047006.2,N
1502450735.9,286047004.5,N
1502450755.7,286047004.2,N
1502450775.5,286047005.7,N
1502450795.4,286047004.0,N
1502450815.2,286047003.5,N
1502450835.0,286047002.5,N
1502450835.9,286047002.5,N
1502450855.7,286047002.4,N
1502450875.6,286047002.8,N
1502450895.4,286047000.8,N
1502450915.2,286046996.8,N
1502450935.1,286046995.6,N
1502450936.0,286046995.6,N
1502450955.8,286046996.2,N
1502450975.6,286046996.2,N
1502450995.5,286046993.3,N
1502451015.3,286046996.4,N
1502451035.1,286046997.2,N
1502451055.9,286047000.3,N
1502451075.7,286046999.4,N
1502451095.5,286047002.5,N
1502451115.4,286047001.6,N
1502451135.2,286047003.0,N
1502451155.0,286046999.7,N
1502451155.9,286046999.7,N
1502451175.8,286047000.3,N
1502451195.6,286046999.9,N
1502451215.4,286046996.6,N
1502451235.3,286046993.5,N
1502451255.1,286046997.1,N
1502451256.0,286046997.1,N
1502451275.8,286046998.2,N
1502451295.7,286046998.7,N
1502451315.5,286046996.8,N
1502451335.3,286047000.8,N
1502451355.1,286046996.6,N
1502451375.9,286046998.7,N
1502451395.7,286046996.9,N
1502451415.5,286046997.6,N
1502451435.4,286046995.8,N
1502451455.2,286046997.9,N
1502451475.0,286046994.2,N
1502451475.9,286046994.2,N
1502451495.8,286046996.3,N
1502451515.6,286046996.3,N
1502451535.4,286046991.7,P
1502451555.3,286046996.9,N
1502451575.1,286046996.4,N
1502451595.8,286046995.1,N
1502451615.7,286046994.3,N
1502451635.5,286046992.5,P
1502451655.3,286047001.0,N
1502451675.2,286046999.9,N
1502451695.0,286047001.4,N
1502451695.9,286047001.4,N
1502451715.7,286047001.3,N
1502451735.6,286047004.2,N
1502451755.4,286047003.7,N
1502451775.2,286047001.5,N
1502451795.1,286046998.5,N
1502451796.0,286046998.5,N
1502451815.8,286047001.0,N
1502451835.6,286047001.8,N
1502451855.5,286047002.6,N
1502451875.3,286047006.1,N
1502451895.1,286047003.7,N
1502451915.9,286047002.5,N
1502451935.7,286047005.5,N
1502451955.5,286047003.1,N
1502451975.3,286047004.4,N
1502451995.2,286047006.0,N
1502452015.0,286047004.2,N
1502452015.9,286047004.2,N
1502452035.7,286047005.1,N
1502452055.6,286047003.7,N
1502452075.4,286047005.4,N
1502452095.2,286047004.0,N
1502452115.1,286047003.6,N
1502452116.0,286047003.6,N
1502452135.8,286047008.8,N
1502452155.6,286047008.9,P
1502452175.5,286047004.6,N
1502452195.3,286047003.9,N
1502452215.1,286047001.4,N
1502452235.9,286047002.5,N
1502452255.7,286047004.1,N
1502452275.5,286047001.1,N
1502452295.4,286047001.2,N
1502452315.2,286046998.3,N
1502452335.0,286046993.4,N
1502452335.9,286046993.4,N
1502452355.8,286046995.1,N
1502452375.6,286046997.4,N
1502452395.4,286046998.5,N
1502452415.3,286046996.8,N
1502452435.1,286046993.8,N
1502452436.0,286046993.8,N
1502452455.8,286046993.6,N
1502452475.6,286046996.1,N
1502452495.5,286046994.5,N
1502452515.3,286046993.1,N
1502452535.1,286046992.2,N
1502452555.9,286046996.2,N
1502452575.7,286046997.0,N
1502452595.5,286046997.6,N
1502452615.4,286046995.0,N
1502452635.2,286046994.7,N
1502452655.0,286046993.8,N
1502452655.9,286046993.8,N
1502452675.8,286046994.8,N
1502452695.6,286046994.2,N
1502452715.4,286046997.8,N
1502452735.3,286046994.9,N
1502452755.1,286046994.0,N
1502452756.0,286046994.0,N
1502452775.8,286046995.9,N
1502452795.7,286046995.2,N
